Gogerbank, United Kingdom

7:14 PM GMT on February 22, 2017 (GMT +0000)
Edinburgh Airport

Weather History for EGPH - August, 2013

Change the Weather History Date:

Monday, August 5, 2013

  Actual Average Record
Temperature  
Mean Temperature 57 °F -  
Max Temperature 64 °F 64 °F 75 °F (1996)
Min Temperature 50 °F 49 °F 42 °F (2014)
Degree Days  
Heating Degree Days 8    
Growing Degree Days 7 (Base 50)    
Moisture  
Dew Point 53 °F    
Average Humidity 88    
Maximum Humidity 100    
Minimum Humidity 63    
Precipitation  
Precipitation 0.00 in 0.09 in - ()
Sea Level Pressure  
Sea Level Pressure 29.80 in    
Wind  
Wind Speed 3 mph ()    
Max Wind Speed 9 mph    
Max Gust Speed -    
Visibility 5.9 miles    
Events Rain    
Averages and records for this station are not official NWS values.
T = Trace of Precipitation, MM = Missing Value Source: Averaged Metar Reports

Daily Weather History Graph

Daily Weather History Graph

Search for Another Location

Airport or City:

Trip Planner

Search our weather history database for the weather conditions in past years. The results will help you decide how hot, cold, wet, or windy it might be!

Date:

Astronomy

Aug. 05, 2013 Rise Set
Actual Time 5:25 AM BST 9:12 PM BST
Civil Twilight 4:38 AM BST 9:58 PM BST
Nautical Twilight 3:31 AM BST 11:04 PM BST
Astronomical Twilight 1:51 AM BST 12:46 AM BST
Moon 4:08 AM BST (8/5) 7:57 PM BST (8/5)
Length of Visible Light 17h 20m
Length of Day
15h 46m
Waning Crescent, 2% of the Moon is Illuminated
Aug 5
Waning Crescent
Aug 6
New
Aug 14
First Quarter
Aug 21
Full
Aug 28
Last Quarter

Hourly Weather History & Observations

Time (BST) Temp. Dew Point Humidity Pressure Visibility Wind Dir Wind Speed Gust Speed Precip Events Conditions
12:20 AM 51.8 °F 50.0 °F 94% 29.86 in - Variable 3.5 mph - N/A   Clear
12:50 AM 51.8 °F 51.8 °F 100% 29.86 in - WSW 2.3 mph - N/A   Clear
1:20 AM 51.8 °F 50.0 °F 94% 29.86 in - Variable 2.3 mph - N/A   Clear
1:50 AM 51.8 °F 50.0 °F 94% 29.86 in - Calm Calm - N/A   Clear
2:20 AM 50.0 °F 50.0 °F 100% 29.86 in - Calm Calm - N/A   Clear
2:50 AM 50.0 °F 50.0 °F 100% 29.86 in - WSW 2.3 mph - N/A   Clear
3:20 AM 50.0 °F 50.0 °F 100% 29.83 in - NW 2.3 mph - N/A   Clear
3:50 AM 50.0 °F 50.0 °F 100% 29.83 in - Calm Calm - N/A   Clear
4:20 AM 50.0 °F 50.0 °F 100% 29.83 in - WSW 2.3 mph - N/A   Clear
4:50 AM 50.0 °F 50.0 °F 100% 29.83 in 6.2 mi Calm Calm - N/A   Unknown
5:20 AM 50.0 °F 50.0 °F 100% 29.83 in - Calm Calm - N/A   Clear
5:50 AM 50.0 °F 50.0 °F 100% 29.83 in - Variable 2.3 mph - N/A   Clear
6:20 AM 51.8 °F 51.8 °F 100% 29.80 in 6.2 mi Calm Calm - N/A   Partly Cloudy
6:50 AM 53.6 °F 53.6 °F 100% 29.80 in 6.2 mi West 2.3 mph - N/A   Overcast
7:20 AM 53.6 °F 53.6 °F 100% 29.80 in 6.2 mi West 2.3 mph - N/A   Mostly Cloudy
7:50 AM 55.4 °F 53.6 °F 94% 29.80 in 6.2 mi Calm Calm - N/A   Overcast
8:20 AM 55.4 °F 55.4 °F 100% 29.80 in 3.1 mi Calm Calm - N/A   Haze
8:50 AM 55.4 °F 55.4 °F 100% 29.80 in - Variable 3.5 mph - N/A   Overcast
9:20 AM 57.2 °F 55.4 °F 94% 29.80 in 4.3 mi Variable 2.3 mph - N/A   Overcast
9:50 AM 57.2 °F 55.4 °F 94% 29.80 in 4.3 mi Variable 3.5 mph - N/A   Overcast
10:20 AM 57.2 °F 55.4 °F 94% 29.80 in 4.3 mi NNW 3.5 mph - N/A   Overcast
10:50 AM 57.2 °F 57.2 °F 100% 29.80 in 6.2 mi North 4.6 mph - N/A Rain Light Rain
11:20 AM 59.0 °F 55.4 °F 88% 29.77 in 6.2 mi NE 5.8 mph - N/A Rain Light Rain
11:50 AM 59.0 °F 57.2 °F 94% 29.77 in 6.2 mi ENE 4.6 mph - N/A   Mostly Cloudy
12:20 PM 59.0 °F 55.4 °F 88% 29.77 in 6.2 mi NE 4.6 mph - N/A   Mostly Cloudy
12:50 PM 59.0 °F 55.4 °F 88% 29.77 in 6.2 mi Variable 2.3 mph - N/A   Mostly Cloudy
1:20 PM 60.8 °F 55.4 °F 82% 29.77 in 6.2 mi Variable 2.3 mph - N/A   Mostly Cloudy
1:50 PM 60.8 °F 55.4 °F 82% 29.77 in 6.2 mi Variable 3.5 mph - N/A   Scattered Clouds
2:20 PM 62.6 °F 55.4 °F 77% 29.77 in 6.2 mi ENE 4.6 mph - N/A   Scattered Clouds
2:50 PM 62.6 °F 55.4 °F 77% 29.77 in 6.2 mi Variable 3.5 mph - N/A   Partly Cloudy
3:20 PM 62.6 °F 55.4 °F 77% 29.77 in 6.2 mi ENE 4.6 mph - N/A   Partly Cloudy
3:50 PM 62.6 °F 55.4 °F 77% 29.77 in 6.2 mi Variable 3.5 mph - N/A   Partly Cloudy
4:20 PM 64.4 °F 55.4 °F 73% 29.77 in 6.2 mi Variable 2.3 mph - N/A   Partly Cloudy
4:50 PM 64.4 °F 53.6 °F 68% 29.74 in 6.2 mi Variable 3.5 mph - N/A   Partly Cloudy
5:20 PM 62.6 °F 57.2 °F 82% 29.74 in 6.2 mi NE 5.8 mph - N/A   Partly Cloudy
5:50 PM 62.6 °F 57.2 °F 82% 29.74 in 6.2 mi NE 4.6 mph - N/A   Partly Cloudy
6:20 PM 62.6 °F 57.2 °F 82% 29.74 in 6.2 mi NE 5.8 mph - N/A   Scattered Clouds
6:50 PM 62.6 °F 57.2 °F 82% 29.74 in 6.2 mi Variable 2.3 mph - N/A   Mostly Cloudy
7:20 PM 64.4 °F 55.4 °F 73% 29.77 in 6.2 mi West 4.6 mph - N/A   Scattered Clouds
7:50 PM 62.6 °F 50.0 °F 63% 29.77 in 6.2 mi West 9.2 mph - N/A   Scattered Clouds
8:20 PM 60.8 °F 50.0 °F 68% 29.77 in 6.2 mi WSW 8.1 mph - N/A   Scattered Clouds
8:50 PM 60.8 °F 51.8 °F 72% 29.80 in 6.2 mi WSW 8.1 mph - N/A   Partly Cloudy
9:20 PM 59.0 °F 51.8 °F 77% 29.80 in 6.2 mi WSW 6.9 mph - N/A   Partly Cloudy
9:50 PM 59.0 °F 50.0 °F 72% 29.80 in - West 8.1 mph - N/A   Clear
10:20 PM 57.2 °F 50.0 °F 77% 29.83 in - WSW 8.1 mph - N/A   Clear
10:50 PM 53.6 °F 50.0 °F 88% 29.83 in - WSW 6.9 mph - N/A   Clear
11:20 PM 53.6 °F 48.2 °F 82% 29.83 in - WSW 8.1 mph - N/A   Clear
11:50 PM 53.6 °F 50.0 °F 88% 29.86 in - WSW 9.2 mph - N/A   Clear